Location: Christian Reformed Church
(43.0975°N, 93.8113°W)
Time: 15:22:38
(UTC+00:00)

SL-16 R/B - Pass Details

Date: 13 December 2025
Orbit: 841 x 845 km, 71.0° (Epoch: 16 January)

Event Time Altitude Azimuth Distance (km) Brightness Sun altitude
Exits shadow 12:50:01 10° 283° (WNW) 2,470 4.0 -8.7°
Reaches altitude 10° 12:50:03 10° 283° (WNW) 2,467 4.0 -8.7°
Maximum altitude 12:51:47 11° 264° (W) 2,362 4.0 -8.4°
Drops below altitude 10° 12:53:31 10° 246° (WSW) 2,462 4.2 -8.1°
Sets 12:57:51 0° 215° (SW) 3,389 5.2 -7.4°
